Regional Weather Roundup
Issued by NWS

Home | Current Version | Previous Version | Text Only | Print | Product List | Glossary On
Versions: 1 2 3 4 5 6 7 8 9 10 11 12 13 14 15 16 17 18 19 20 21 22 23 24 25 26 27 28 29 30 31 32 33 34 35 36 37 38 39 40 41 42 43 44 45 46 47 48 49 50
000
ASCA44 KEWX 050920
RWRMX

LATIN AMERICA AND CARIBBEAN REGIONAL WEATHER ROUNDUP
NATIONAL WEATHER SERVICE AUSTIN/SAN ANTONIO TX
400 AM CDT WED AUG 05 2015

NOTE: "FAIR" INDICATED FEW OR NO CLOUDS BELOW 12,000 FEET WITH NO
SIGNIFICANT WEATHER AND/OR OBSTRUCTIONS TO VISIBILITY.

BAJA CALIFORNIA

CITY           SKY/WX    TMP DP  RH WIND       PRES   REMARKS
TIJUANA        CLEAR     68  63  83 CALM      29.96R

NORTHWESTERN MEXICO

CITY           SKY/WX    TMP DP  RH WIND       PRES   REMARKS

NORTHEASTERN MEXICO

CITY           SKY/WX    TMP DP  RH WIND       PRES   REMARKS
MONTERREY      PTCLDY    77  70  78 E6        29.94R

WESTERN MEXICO

CITY           SKY/WX    TMP DP  RH WIND       PRES   REMARKS
GUADALAJARA    LGT RAIN  63  55  77 NW3       30.18F
MAZATLAN       TSTM      79  75  89 W9        29.84F
P. VALLARTA    PTCLDY    79  75  89 N3        29.86F
ZACATECAS        N/A    N/A N/A N/A MISG        N/A

CENTRAL MEXICO

CITY           SKY/WX    TMP DP  RH WIND       PRES   REMARKS
MEXICO CITY    MOCLDY    63  54  72 W7        30.35F
MORELIA        PTCLDY    55  55 100 CALM      30.26
S. LUIS POTOSI CLEAR     61  52  72 SE5       30.28F
TOLUCA         MOCLDY    52  50  93 CALM      30.43S

SOUTHERN MEXICO

CITY           SKY/WX    TMP DP  RH WIND       PRES   REMARKS
ACAPULCO       MOCLDY    82  77  83 NE3       29.83F HX  91
OAXACA         MOCLDY    61  59  94 NE2       30.24F
VERACRUZ         N/A    N/A N/A N/A MISG        N/A

YUCATAN PENINSULA

CITY           SKY/WX    TMP DP  RH WIND       PRES   REMARKS
CANCUN         PTCLDY    81  79  94 E7        29.98F
COZUMEL        PTCLDY    73  73 100 CALM      29.98S
MERIDA         MOCLDY    75  73  94 E8        29.98S
TAPACHULA      PTCLDY    79  75  89 CALM      29.86S

CENTRAL AMERICA

CITY           SKY/WX    TMP DP  RH WIND       PRES   REMARKS
MANAGUA        MOSUNNY   79  73  83 SE7       29.80

CARIBBEAN

CITY           SKY/WX    TMP DP  RH WIND       PRES   REMARKS
ARUBA          PTCLDY    82  77  83 E18       29.89S HX  91
CURACAO        PTCLDY    81  77  89 E13       29.92S
KINGSTON       PTCLDY    82  72  69 NW9       29.92F
NASSAU         PTCLDY    84  81  89 SE5       30.11S HX  98
SAN JUAN       PTCLDY    79  75  89 E5        30.03S
SANTO DOMINGO  PTCLDY    75  73  94 NE7       30.00S
ST. CROIX      CLEAR     79  73  83 NE6       30.02
ST. MAARTEN    PTCLDY    79  72  78 E6        30.00F
ST. THOMAS     CLEAR     82  73  74 E7        30.02

$$




USA.gov is the U.S. government's official web portal to all federal, state and local government web resources and services.